Location: Goettingen
(51.5300°N, 9.9433°E)
Time: 07:58:29
(UTC+02:00)

ISS - Pass Details

Date: 21 May 2018
Orbit: 402 x 407 km, 51.6° (Epoch: 23 May)

Event Time Altitude Azimuth Distance (km) Brightness Sun altitude
Rises 23:51:05 0° 247° (WSW) 2,315 0.0 -15.7°
Reaches altitude 10° 23:53:10 10° 245° (WSW) 1,457 -1.1 -15.8°
Maximum altitude 23:56:24 65° 163° (SSE) 449 -4.0 -16.0°
Drops below altitude 10° 23:59:39 10° 81° (E) 1,460 -1.1 -16.2°
Sets 00:01:44 0° 78° (ENE) 2,320 0.0 -16.3°
